Date,TemperatureHighF,TemperatureAvgF,TemperatureLowF,DewpointHighF,DewpointAvgF,DewpointLowF,HumidityHigh,HumidityAvg,HumidityLow,PressureMaxIn,PressureMinIn,WindSpeedMaxMPH,WindSpeedAvgMPH,GustSpeedMaxMPH,PrecipitationSumIn
2013-1-29,57.6,55.7,54.6,55.0,54.2,54.0,97,95,90,29.64,29.41,17,6,23,0.99
2013-1-30,56.8,45.9,30.8,55.0,44.8,27.0,99,96,86,29.40,29.06,19,4,27,0.71
2013-1-31,29.9,20.9,15.2,26.0,15.3,12.0,90,79,67,29.88,29.21,23,10,34,0.00
2013-2-1,17.5,14.3,9.6,12.0,8.4,3.0,89,77,66,30.24,29.88,14,7,24,0.00
2013-2-2,18.9,13.2,0.9,15.0,9.3,-2.0,91,84,75,30.19,29.99,12,3,18,0.00
2013-2-3,19.3,10.5,-0.7,15.0,6.4,-3.0,90,83,74,30.04,29.87,12,3,20,0.00
2013-2-4,22.5,16.8,11.8,16.0,12.2,7.0,90,82,73,30.04,29.91,4,1,6,0.00
2013-2-5,27.3,17.4,2.8,25.0,13.8,0.0,93,86,69,29.99,29.81,12,3,16,0.00
2013-2-6,30.9,22.2,8.8,19.0,15.6,7.0,94,76,62,30.29,30.00,8,1,11,0.00
2013-2-7,36.8,30.2,25.3,28.0,22.8,18.0,94,74,67,30.28,29.91,14,3,16,0.00
2013-2-8,29.6,24.3,15.6,27.0,21.0,12.0,96,88,68,30.37,29.84,18,4,25,0.00
2013-2-9,33.6,17.0,-3.0,20.0,10.9,-6.0,93,79,52,30.48,30.28,7,1,10,0.03
2013-2-10,40.4,30.7,19.2,37.0,24.8,17.0,92,79,57,30.28,29.65,12,4,21,0.27
2013-2-11,44.1,37.2,31.7,43.0,32.3,27.0,95,82,69,29.82,29.50,24,10,33,0.05
2013-2-12,31.6,29.3,26.8,27.0,24.0,22.0,84,80,76,30.02,29.82,13,6,25,0.00
2013-2-13,37.8,29.7,26.2,28.0,24.5,22.0,89,81,68,29.93,29.73,7,2,12,0.00
2013-2-14,40.6,34.2,29.6,35.0,30.8,26.0,93,87,79,29.83,29.64,17,6,32,0.01
2013-2-15,30.1,25.1,21.0,25.0,17.7,14.0,83,74,63,30.12,29.84,13,5,23,0.00
2013-2-16,24.4,19.1,15.1,19.0,14.1,8.0,91,81,60,30.11,30.00,9,2,17,0.00
2013-2-17,22.3,14.3,6.3,12.0,6.6,3.0,88,72,53,30.23,30.10,10,2,15,0.00
2013-2-18,46.3,31.1,15.3,38.0,21.1,7.0,75,67,56,30.21,29.55,14,6,21,0.00
2013-2-19,46.8,28.9,17.9,40.0,24.3,12.0,93,83,72,29.89,29.36,20,10,32,0.13
2013-2-20,22.2,18.8,14.7,15.0,12.3,9.0,90,76,67,30.26,29.89,18,8,25,0.00
2013-2-21,25.2,19.6,16.7,19.0,13.8,11.0,91,78,65,30.42,30.26,13,3,18,0.00
2013-2-22,32.9,26.5,21.1,32.0,24.2,18.0,96,91,83,30.29,29.87,11,4,16,0.00
2013-2-23,33.3,29.4,24.4,31.0,24.6,20.0,94,82,68,29.91,29.85,14,6,18,0.00
2013-2-24,36.9,28.0,21.9,28.0,23.8,20.0,94,84,62,30.16,29.88,9,3,17,0.04
2013-2-25,41.9,30.3,20.8,28.0,23.7,19.0,92,78,53,30.24,30.11,5,0,7,0.00
2013-2-26,36.5,30.4,23.5,32.0,26.6,21.0,97,86,71,30.14,29.55,15,2,17,0.12
2013-2-27,36.6,33.6,32.4,35.0,32.6,32.0,98,96,92,29.56,29.47,5,0,10,0.41
2013-2-28,34.5,31.9,27.9,32.0,29.7,24.0,98,91,82,29.98,29.55,10,4,18,0.12
2013-3-1,27.8,25.1,23.1,24.0,20.8,19.0,87,83,78,30.14,29.99,10,3,16,0.00
2013-3-2,25.7,23.0,17.4,20.0,18.6,15.0,93,83,77,30.11,30.08,8,2,12,0.00
2013-3-3,26.6,20.9,12.4,18.0,15.2,10.0,91,79,69,30.08,30.02,9,3,17,0.00
2013-3-4,31.7,19.7,10.9,19.0,14.2,9.0,93,80,58,30.17,30.07,7,1,9,0.00
2013-3-5,35.9,25.0,13.2,27.0,20.3,12.0,94,83,67,30.16,29.89,12,2,16,0.00
2013-3-6,37.8,30.7,25.6,30.0,26.6,23.0,95,85,72,30.22,29.92,6,1,11,0.01
2013-3-7,33.1,29.4,19.8,30.0,24.9,18.0,96,84,63,30.41,30.20,10,2,13,0.00
2013-3-8,41.1,28.5,15.3,29.0,22.7,14.0,95,80,60,30.52,30.41,6,1,9,0.01
2013-3-9,45.3,36.2,25.9,33.0,28.7,24.0,91,75,58,30.41,30.02,9,3,15,0.00
2013-3-10,58.3,50.0,38.7,45.0,39.4,33.0,84,68,56,30.01,29.75,10,3,17,0.00
2013-3-11,56.0,48.6,36.6,49.0,44.1,34.0,96,85,58,29.76,29.43,16,5,26,0.36
2013-3-12,36.5,33.4,29.5,34.0,29.1,25.0,92,84,69,29.89,29.63,20,6,24,0.00
2013-3-13,33.2,28.0,23.4,27.0,20.0,15.0,91,73,49,30.19,29.85,18,8,30,0.00
2013-3-14,38.5,29.6,21.7,24.0,19.5,15.0,82,67,50,30.26,30.07,11,4,16,0.00
2013-3-15,37.7,34.2,29.7,32.0,29.7,21.0,95,84,68,30.07,29.86,9,4,16,0.00
2013-3-16,32.3,27.7,24.2,31.0,24.3,22.0,94,87,76,30.03,29.80,11,2,15,0.01
2013-3-17,32.0,24.4,16.5,24.0,15.1,10.0,93,69,46,30.30,30.03,9,3,13,0.07
2013-3-18,33.7,29.7,18.6,32.0,25.8,13.0,97,85,72,30.22,29.57,15,4,20,0.00
2013-3-19,33.9,25.4,21.4,31.0,20.5,16.0,89,81,69,29.92,29.58,20,9,38,0.01
2013-3-20,26.4,22.3,15.7,19.0,14.7,11.0,85,73,61,29.95,29.89,16,7,22,0.00
2013-3-21,29.8,23.8,15.5,26.0,19.3,11.0,91,83,71,29.94,29.85,15,6,19,0.00
2013-3-22,36.1,28.3,24.3,25.0,20.7,18.0,84,74,59,30.03,29.94,13,4,18,0.01
2013-3-23,34.4,30.0,22.9,26.0,23.9,21.0,91,78,68,30.12,30.03,6,1,9,0.00
2013-3-24,39.0,28.1,18.7,30.0,22.9,17.0,96,82,57,30.07,29.70,12,2,17,0.00
2013-3-25,38.2,33.8,30.1,31.0,27.1,24.0,81,77,67,29.93,29.63,11,3,18,0.00
2013-3-26,43.8,35.6,31.4,33.0,30.1,27.0,89,80,65,30.10,29.93,11,4,15,0.01
2013-3-27,45.8,37.0,29.4,31.0,27.5,25.0,86,70,52,30.20,30.10,16,6,25,0.00
2013-3-28,50.4,38.9,30.1,31.0,27.1,25.0,84,65,42,30.26,30.20,13,4,18,0.00
2013-3-29,50.7,38.3,26.8,27.0,24.4,22.0,84,60,36,30.28,30.20,8,2,13,0.00
2013-3-30,54.8,41.5,23.6,31.0,24.5,19.0,92,56,25,30.21,29.90,12,3,16,0.00
2013-3-31,55.2,45.3,39.6,42.0,36.7,31.0,93,73,53,29.90,29.59,18,5,25,0.02
2013-4-1,39.1,30.0,24.9,32.0,18.1,13.0,93,63,43,30.09,29.67,19,7,28,0.00
2013-4-2,39.7,29.9,20.3,20.0,16.1,12.0,89,59,36,30.26,30.09,16,5,24,0.00
2013-4-3,41.3,30.2,17.8,18.0,15.8,13.0,83,58,36,30.44,30.25,12,2,17,0.00
2013-4-4,56.1,42.2,27.8,26.0,20.0,15.0,65,44,24,30.35,29.92,14,5,20,0.00
2013-4-5,46.7,39.3,31.8,32.0,24.0,17.0,89,57,33,30.20,29.94,9,2,14,0.00
2013-4-6,50.8,39.3,29.0,26.0,22.4,17.0,77,53,35,30.23,29.73,16,5,25,0.00
2013-4-7,56.5,45.3,30.8,48.0,36.1,26.0,93,72,36,30.02,29.55,23,7,31,0.00
2013-4-8,58.0,41.8,28.2,54.0,38.7,27.0,96,89,67,30.03,29.67,20,4,28,0.44
2013-4-9,49.0,42.7,38.9,45.0,41.3,38.0,98,94,81,30.08,29.88,8,2,12,1.68
2013-4-10,40.0,38.2,36.4,40.0,37.5,34.0,98,97,90,30.02,29.90,9,2,19,1.39
2013-4-11,37.5,35.3,34.0,35.0,33.9,33.0,97,94,88,30.00,29.68,16,4,20,0.73
2013-4-12,43.1,37.0,32.6,39.0,35.0,32.0,98,92,78,29.74,29.53,12,4,18,0.39
2013-4-13,40.5,37.4,35.3,38.0,31.8,26.0,97,81,60,29.97,29.74,16,6,30,0.04
2013-4-14,48.5,39.5,29.9,37.0,31.8,28.0,92,75,60,30.10,29.91,11,3,15,0.00
2013-4-15,68.9,55.2,41.1,56.0,46.1,35.0,91,72,59,29.92,29.82,13,4,19,0.02
2013-4-16,58.2,50.5,44.0,56.0,42.4,35.0,97,76,44,30.23,29.84,14,4,20,0.24
2013-4-17,56.2,45.3,36.7,43.0,36.6,32.0,95,73,48,30.35,30.03,7,2,15,0.60
2013-4-18,75.8,57.8,43.9,66.0,54.8,42.0,98,90,70,30.00,29.50,15,6,30,0.73
2013-4-19,59.3,43.4,31.9,58.0,38.9,30.0,96,85,66,29.70,29.30,22,10,32,0.80
2013-4-20,36.9,32.1,24.4,30.0,22.5,18.0,90,69,58,30.45,29.70,18,7,25,0.00
2013-4-21,50.4,36.0,20.5,28.0,23.9,19.0,96,66,37,30.63,30.45,10,2,16,0.00
2013-4-22,63.6,48.4,33.6,35.0,30.1,25.0,86,53,26,30.46,30.17,8,2,13,0.00
2013-4-23,67.1,55.1,43.7,54.0,42.9,34.0,96,66,45,30.17,29.79,11,4,29,0.36
2013-4-24,46.1,38.3,33.3,45.0,34.3,28.0,97,86,58,30.10,29.78,12,4,19,0.42
2013-4-25,49.7,41.2,34.8,40.0,32.0,27.0,92,71,46,30.32,30.06,16,6,27,0.04
2013-4-26,61.1,47.0,29.6,38.0,32.9,27.0,93,61,39,30.43,30.29,13,3,18,0.00
2013-4-27,71.8,57.7,43.1,44.0,37.9,32.0,78,51,27,30.32,30.08,12,3,14,0.00
2013-4-28,63.1,54.1,46.4,53.0,45.4,36.0,97,74,53,30.07,29.82,9,2,13,0.15
2013-4-29,70.6,60.0,52.2,56.0,53.4,52.0,99,81,55,29.91,29.82,6,2,10,0.01
2013-4-30,74.1,62.9,55.4,58.0,55.3,53.0,95,77,51,30.03,29.88,13,4,25,0.33
2013-5-1,82.9,70.7,57.1,59.0,55.5,53.0,87,61,37,30.18,30.01,9,4,16,0.00
2013-5-2,80.1,70.2,57.9,57.0,52.3,47.0,77,55,39,30.20,30.07,16,4,21,0.00
2013-5-3,78.3,68.2,56.7,56.0,45.7,34.0,62,46,22,30.09,30.01,13,3,19,0.00
2013-5-4,72.9,64.9,52.1,50.0,42.6,32.0,66,46,23,30.09,30.02,12,3,16,0.00
2013-5-5,74.2,60.8,43.7,48.0,39.6,31.0,84,50,22,30.08,30.00,8,2,16,0.00
2013-5-6,78.6,61.1,40.0,50.0,42.1,34.0,95,55,24,30.05,29.93,8,2,11,0.00
2013-5-7,77.5,63.5,45.7,55.0,48.8,39.0,84,61,39,30.04,29.95,12,2,12,0.00
2013-5-8,81.7,66.0,46.5,55.0,48.8,43.0,96,59,28,30.00,29.89,8,1,16,0.00
2013-5-9,81.5,67.0,51.1,58.0,52.0,48.0,95,63,32,29.94,29.84,9,1,12,0.00
2013-5-10,67.1,49.1,41.0,56.0,46.5,40.0,97,91,64,29.88,29.74,10,2,17,0.32
2013-5-11,61.1,46.4,36.9,49.0,41.7,34.0,97,84,56,29.87,29.68,21,4,30,0.03
2013-5-12,45.3,39.1,31.3,35.0,30.6,25.0,89,72,55,30.09,29.83,20,7,31,0.00
2013-5-13,53.8,41.3,27.5,33.0,26.9,24.0,90,60,33,30.17,30.09,10,2,19,0.00
2013-5-14,74.6,56.1,43.6,52.0,39.8,31.0,75,56,42,30.08,29.68,10,3,16,0.00
2013-5-15,78.7,68.0,54.9,59.0,50.7,44.0,82,57,32,29.76,29.52,18,5,23,0.00
2013-5-16,80.3,64.4,47.7,50.0,45.3,40.0,87,54,28,30.02,29.75,11,2,16,0.00
2013-5-17,66.5,56.6,41.1,48.0,43.8,38.0,90,64,49,30.14,30.02,6,1,9,0.00
2013-5-18,80.9,65.4,52.5,52.0,47.6,43.0,82,56,33,30.14,30.00,8,2,13,0.00
2013-5-19,87.4,71.3,49.9,64.0,55.5,46.0,91,60,40,30.01,29.82,10,1,11,0.00
2013-5-20,89.4,74.4,65.8,71.0,65.2,61.0,93,75,46,29.88,29.70,13,4,32,0.00
2013-5-21,82.1,73.9,63.9,67.0,63.6,61.0,91,72,52,29.76,29.66,11,3,21,0.00
2013-5-22,76.6,67.4,62.3,67.0,63.6,61.0,97,88,68,29.68,29.56,10,3,27,0.50
2013-5-23,62.0,49.9,41.3,61.0,48.6,40.0,97,95,92,30.14,29.63,7,2,15,0.28
2013-5-24,57.0,46.4,36.9,43.0,38.8,34.0,98,76,54,30.37,30.16,7,1,12,0.00
2013-5-25,63.3,49.4,32.7,44.0,38.2,32.0,98,70,36,30.41,30.28,7,1,13,0.01
2013-5-26,67.5,52.2,33.7,45.0,38.1,33.0,98,64,33,30.35,30.23,7,1,13,0.00
2013-5-27,69.3,53.7,39.7,49.0,41.6,35.0,94,68,32,30.25,29.99,9,2,15,0.00
2013-5-28,73.4,60.6,51.0,70.0,59.5,49.0,99,96,87,29.99,29.75,7,2,25,1.80
2013-5-29,79.8,71.1,61.6,69.0,66.1,61.0,98,85,66,29.94,29.71,16,3,20,0.38
2013-5-30,86.2,75.8,66.2,73.0,67.8,62.0,93,77,57,29.99,29.89,11,3,18,0.11
2013-5-31,79.7,74.2,68.9,69.0,67.2,65.0,91,79,65,29.93,29.78,16,4,23,0.00
2013-6-1,79.2,70.9,64.2,68.0,64.9,62.0,96,82,63,29.81,29.63,15,4,19,0.06
2013-6-2,67.8,60.9,49.5,64.0,54.9,42.0,90,81,73,29.98,29.58,12,5,23,0.00
2013-6-3,66.5,52.3,36.8,48.0,42.0,36.0,98,71,44,30.07,29.98,8,2,15,0.00
2013-6-4,71.1,57.5,41.6,50.0,45.0,41.0,99,67,35,30.18,30.07,7,1,10,0.00
2013-6-5,72.5,60.1,51.3,51.0,45.2,40.0,79,59,39,30.17,29.99,9,1,9,0.01
2013-6-6,68.5,59.0,52.6,55.0,51.0,48.0,88,75,62,30.01,29.86,10,2,11,0.05
2013-6-7,64.1,54.9,48.0,54.0,50.7,47.0,97,86,67,29.92,29.86,5,1,14,0.00
2013-6-8,72.6,61.1,47.2,57.0,53.3,46.0,98,78,51,30.05,29.89,3,0,7,0.00
2013-6-9,77.0,66.3,53.5,61.0,55.5,52.0,95,70,53,30.08,29.91,12,3,15,0.00
2013-6-10,75.0,65.7,59.4,67.0,61.9,52.0,97,88,57,29.92,29.70,7,2,12,0.63
2013-6-11,79.2,69.3,61.6,68.0,64.6,61.0,99,86,69,29.85,29.75,10,2,15,0.00
2013-6-12,76.7,68.2,58.4,68.0,64.4,58.0,99,88,70,29.88,29.60,5,1,11,0.11
2013-6-13,78.1,68.4,60.9,66.0,60.7,57.0,98,78,52,29.90,29.58,14,3,16,0.74
2013-6-14,76.5,65.4,56.6,59.0,53.5,49.0,97,68,43,30.06,29.90,6,1,11,0.00
2013-6-15,78.3,66.7,56.2,65.0,58.6,50.0,90,76,56,30.04,29.86,9,2,15,0.00
2013-6-16,79.9,70.6,63.9,68.0,62.8,57.0,96,78,52,29.87,29.71,15,4,18,0.29
2013-6-17,82.0,68.9,57.4,64.0,59.7,56.0,96,74,47,29.92,29.77,9,2,29,0.00
2013-6-18,71.3,61.6,49.6,57.0,49.5,42.0,96,68,39,30.07,29.89,10,2,15,0.00
2013-6-19,77.6,60.2,39.3,55.0,46.4,39.0,99,65,36,30.17,30.07,5,1,8,0.00
2013-6-20,81.6,67.7,51.8,58.0,53.7,50.0,95,65,35,30.18,30.11,6,1,10,0.00
2013-6-21,85.0,72.6,56.3,68.0,60.4,53.0,90,67,50,30.16,30.00,9,2,15,0.00
2013-6-22,88.9,78.0,68.6,74.0,67.2,59.0,89,70,53,30.02,29.91,9,2,17,0.00
2013-6-23,89.2,79.6,69.9,71.0,69.3,66.0,97,73,48,29.98,29.90,12,3,17,0.00
2013-6-24,87.7,77.5,68.7,72.0,68.8,66.0,91,75,55,29.98,29.85,13,3,13,0.00
2013-6-25,79.3,71.8,66.9,71.0,67.9,65.0,96,88,72,29.91,29.77,8,2,17,0.40
2013-6-26,85.9,74.7,64.6,73.0,68.7,64.0,98,83,60,29.82,29.70,7,1,18,0.18
2013-6-27,83.6,71.2,65.1,73.0,67.9,64.0,99,90,67,29.71,29.59,7,1,12,0.66
2013-6-28,75.1,67.3,63.9,68.0,65.0,63.0,99,92,71,29.62,29.49,8,2,14,0.61
2013-6-29,74.3,67.4,61.6,64.0,61.4,58.0,99,82,62,29.71,29.52,8,1,13,0.01
2013-6-30,80.1,67.2,54.5,66.0,58.1,45.0,97,75,49,29.94,29.72,6,1,16,0.19
2013-7-1,71.7,61.8,52.9,60.0,52.9,48.0,86,74,54,30.08,29.95,6,1,11,0.02
2013-7-2,78.5,65.9,56.3,63.0,57.8,52.0,91,76,56,30.06,30.00,9,1,11,0.01
2013-7-3,83.0,70.3,57.2,70.0,63.5,56.0,97,80,56,30.06,29.99,7,1,10,0.00
2013-7-4,79.5,71.5,64.2,67.0,63.6,59.0,97,77,53,30.08,30.02,9,2,13,0.00
2013-7-5,84.5,74.2,63.8,67.0,63.9,60.0,95,72,51,30.07,29.99,4,1,10,0.00
2013-7-6,85.3,76.0,67.2,72.0,68.6,66.0,95,79,56,30.05,29.93,6,1,10,0.00
2013-7-7,83.1,73.3,68.9,74.0,69.8,68.0,97,89,66,29.98,29.90,5,1,10,0.33
2013-7-8,81.8,74.1,69.5,75.0,70.3,67.0,94,88,78,29.97,29.91,8,2,12,0.06
2013-7-9,87.3,75.3,68.6,74.0,70.6,68.0,98,86,62,29.94,29.81,12,2,19,0.30
2013-7-10,86.0,76.8,63.4,76.0,69.1,58.0,99,79,54,29.90,29.71,13,4,19,0.00
2013-7-11,78.9,66.4,54.8,60.0,57.7,54.0,98,76,50,30.05,29.91,8,1,12,0.00
2013-7-12,84.1,65.8,50.2,64.0,58.2,50.0,99,79,49,30.15,30.05,5,1,7,0.00
2013-7-13,86.0,73.2,55.7,65.0,59.8,53.0,98,67,34,30.17,30.12,7,1,11,0.00
2013-7-14,92.0,77.5,61.2,73.0,67.5,60.0,98,74,46,30.22,30.17,6,1,7,0.00
2013-7-15,95.0,80.4,67.8,77.0,72.6,67.0,99,79,54,30.25,30.17,5,1,8,0.00
2013-7-16,92.6,82.1,72.9,79.0,74.7,72.0,98,80,56,30.25,30.17,6,1,12,0.00
2013-7-17,93.2,82.9,71.3,79.0,74.3,70.0,96,77,55,30.22,30.07,11,2,13,0.00
2013-7-18,93.3,83.0,72.4,77.0,74.2,71.0,95,76,56,30.10,29.88,13,2,18,0.00
2013-7-19,93.0,84.3,76.2,75.0,72.9,68.0,90,70,48,29.88,29.63,21,5,29,0.00
2013-7-20,84.5,76.1,65.7,73.0,64.9,58.0,94,70,43,29.89,29.66,11,2,16,0.00
2013-7-21,82.9,69.8,55.3,62.0,58.5,54.0,95,70,47,29.98,29.89,6,1,11,0.00
2013-7-22,83.2,73.1,64.1,70.0,64.3,60.0,91,75,55,29.93,29.71,9,2,13,0.01
2013-7-23,77.8,69.8,60.7,72.0,64.1,51.0,95,82,59,29.86,29.61,12,4,21,0.29
2013-7-24,72.9,62.1,49.3,54.0,50.9,47.0,92,68,48,30.03,29.87,8,2,13,0.00
2013-7-25,77.0,63.3,46.8,57.0,52.0,46.0,99,71,41,30.09,30.02,6,1,9,0.00
2013-7-26,79.4,68.4,58.7,63.0,58.9,55.0,90,73,54,30.06,29.86,9,2,12,0.08
2013-7-27,77.9,65.9,55.9,66.0,61.4,49.0,95,85,61,29.86,29.68,15,2,20,0.46
2013-7-28,65.1,56.6,48.8,56.0,52.0,47.0,96,85,67,29.94,29.79,10,3,17,0.11
2013-7-29,70.0,61.0,55.3,59.0,56.0,54.0,96,84,66,30.15,29.92,9,2,15,0.07
2013-7-30,79.5,64.6,49.1,61.0,56.4,49.0,99,78,46,30.21,30.08,6,1,8,0.00
2013-7-31,67.4,64.7,62.4,66.0,62.9,60.0,99,93,85,30.09,29.86,3,0,6,0.98
2013-8-1,77.3,67.4,59.6,66.0,61.3,55.0,99,83,53,29.88,29.84,6,2,14,0.18
2013-8-2,74.7,64.9,55.3,65.0,59.8,54.0,95,84,66,29.88,29.79,11,3,16,0.00
2013-8-3,75.8,65.7,54.3,63.0,57.1,53.0,99,76,49,30.03,29.86,8,2,14,0.00
2013-8-4,73.0,62.5,52.5,59.0,54.7,51.0,95,77,55,30.15,30.03,7,2,12,0.00
2013-8-5,71.0,61.9,53.6,59.0,54.7,50.0,93,78,60,30.09,29.93,7,1,11,0.00
2013-8-6,77.9,69.0,63.1,69.0,64.1,58.0,95,84,73,29.93,29.83,10,2,16,0.00
2013-8-7,83.2,72.0,61.7,72.0,67.6,61.0,98,87,65,29.87,29.77,10,3,28,0.58
2013-8-8,76.3,67.5,57.1,66.0,59.7,55.0,95,78,50,29.99,29.87,6,1,10,0.00
2013-8-9,79.3,67.0,52.4,63.0,58.3,52.0,98,76,49,29.97,29.89,10,2,14,0.00
2013-8-10,75.9,66.3,53.9,61.0,57.0,53.0,98,74,49,30.11,29.98,6,1,11,0.00
2013-8-11,76.7,65.7,55.7,63.0,58.7,54.0,97,80,52,30.09,30.00,9,1,11,0.00
2013-8-12,71.0,65.1,59.4,68.0,63.3,58.0,99,93,86,30.03,29.81,9,1,11,0.01
2013-8-13,67.2,60.0,52.2,64.0,51.2,46.0,98,74,50,30.04,29.82,13,4,19,0.00
2013-8-14,71.3,57.7,45.9,53.0,49.3,45.0,95,76,48,30.15,30.04,7,2,12,0.00
2013-8-15,73.4,60.1,46.5,58.0,52.4,46.0,98,78,53,30.15,30.05,9,2,18,0.00
2013-8-16,80.6,64.9,48.3,59.0,54.1,48.0,97,72,41,30.17,30.08,4,1,8,0.00
2013-8-17,82.1,67.0,50.3,62.0,54.7,50.0,98,70,33,30.24,30.15,7,1,8,0.00
2013-8-18,82.3,66.6,49.2,63.0,57.0,48.0,99,75,44,30.21,30.07,4,0,9,0.00
2013-8-19,82.7,68.9,54.0,64.0,59.2,53.0,98,74,42,30.09,29.99,8,2,12,0.00
2013-8-20,85.5,72.4,59.2,68.0,63.1,58.0,95,75,50,30.09,30.02,12,2,14,0.00
2013-8-21,87.2,75.6,64.6,70.0,66.5,63.0,94,75,54,30.07,29.93,9,2,14,0.00
2013-8-22,81.0,74.0,67.0,69.0,66.9,63.0,95,79,64,30.02,29.87,8,2,18,0.00
2013-8-23,81.5,67.2,52.6,63.0,58.2,52.0,99,76,44,30.18,30.03,7,1,13,0.00
2013-8-24,83.4,72.7,50.2,61.0,57.7,50.0,98,63,40,30.29,30.21,9,1,10,0.00
2013-8-25,87.0,73.6,60.0,69.0,63.3,58.0,95,72,50,30.25,30.08,14,3,18,0.00
2013-8-26,84.5,76.0,67.7,75.0,68.2,63.0,88,77,62,30.09,29.92,6,2,17,0.01
2013-8-27,82.9,74.5,69.2,76.0,72.0,68.0,98,92,79,29.95,29.78,9,1,25,1.31
2013-8-28,82.8,73.6,64.8,74.0,70.7,64.0,99,91,66,29.98,29.75,8,1,15,0.00
2013-8-29,88.6,73.0,62.8,72.0,67.3,62.0,99,85,54,30.05,29.95,6,0,7,0.01
2013-8-30,85.7,77.3,68.1,74.0,70.5,65.0,97,80,62,29.96,29.67,15,4,18,0.00
2013-8-31,79.4,71.9,62.3,71.0,66.5,61.0,96,84,65,29.81,29.72,6,1,11,0.00
2013-9-1,79.7,68.0,60.1,72.0,65.6,60.0,99,92,76,29.82,29.68,4,0,6,0.09
2013-9-2,69.9,65.4,57.7,69.0,60.5,53.0,98,85,69,29.90,29.69,11,4,18,0.01
2013-9-3,74.2,63.3,56.2,58.0,54.3,52.0,90,74,51,29.98,29.89,14,3,17,0.00
2013-9-4,80.7,66.3,53.1,66.0,59.5,52.0,98,80,57,30.05,29.95,13,3,17,0.00
2013-9-5,70.0,58.6,47.1,61.0,49.3,43.0,95,74,40,30.23,30.06,7,2,14,0.00
2013-9-6,75.7,59.8,42.8,56.0,50.6,42.0,98,75,46,30.26,30.03,10,2,13,0.00
2013-9-7,76.4,67.8,59.5,70.0,62.0,52.0,95,82,70,30.03,29.85,7,2,13,0.11
2013-9-8,74.1,67.2,55.0,68.0,57.9,49.0,96,74,48,30.07,29.89,13,2,13,0.00
2013-9-9,79.7,65.6,50.0,71.0,61.2,48.0,96,86,74,30.04,29.83,9,2,10,0.00
2013-9-10,93.7,81.6,71.6,73.0,69.7,65.0,91,70,41,29.94,29.81,15,4,19,0.00
2013-9-11,88.2,77.5,67.7,73.0,68.9,65.0,91,76,55,29.95,29.88,13,3,13,0.08
2013-9-12,75.9,65.8,57.0,65.0,59.0,45.0,98,80,50,29.94,29.82,12,3,19,0.12
2013-9-13,59.6,52.5,40.0,47.0,43.7,38.0,96,73,48,30.13,29.95,12,3,18,0.00
2013-9-14,68.2,51.2,33.6,47.0,41.5,33.0,99,74,39,30.18,30.06,8,2,13,0.00
2013-9-15,61.4,54.3,46.7,55.0,49.3,44.0,97,84,66,30.11,30.03,5,1,8,0.05
2013-9-16,61.9,53.7,40.6,54.0,48.3,39.0,97,84,55,30.38,30.11,10,2,12,0.02
2013-9-17,69.2,50.3,31.4,52.0,43.0,31.0,99,79,51,30.41,30.21,6,1,10,0.00
2013-9-18,77.1,60.9,41.1,58.0,51.2,40.0,98,74,48,30.21,30.00,9,2,13,0.00
2013-9-19,80.0,69.0,59.2,70.0,63.5,57.0,94,83,67,30.01,29.84,10,2,13,0.00
2013-9-20,77.3,70.9,66.4,72.0,67.5,65.0,95,89,78,29.84,29.68,10,3,14,0.06
2013-9-21,67.9,60.5,53.0,65.0,53.8,44.0,96,80,52,29.86,29.64,11,4,17,0.00
2013-9-22,58.4,50.5,40.4,45.0,42.4,39.0,96,75,55,30.08,29.86,7,2,16,0.00
2013-9-23,59.8,47.9,34.4,47.0,42.0,34.0,98,82,59,30.19,30.08,4,0,8,0.00
2013-9-24,70.3,52.4,34.2,50.0,44.4,34.0,99,78,47,30.15,29.99,5,1,9,0.00
2013-9-25,74.7,54.5,36.6,57.0,46.7,36.0,99,79,39,30.01,29.94,6,1,12,0.01
2013-9-26,78.4,55.6,38.6,58.0,48.2,38.0,99,81,40,30.12,30.00,5,0,7,0.00
2013-9-27,79.1,60.4,40.6,57.0,50.3,40.0,99,74,41,30.22,30.12,7,1,11,0.00
2013-9-28,78.1,63.8,48.9,62.0,54.7,48.0,99,76,46,30.17,29.97,9,2,15,0.01
2013-9-29,64.1,59.8,50.6,60.0,56.3,50.0,98,88,74,29.97,29.89,7,2,14,0.17
2013-9-30,70.2,58.5,51.7,57.0,52.8,50.0,99,84,53,30.00,29.89,8,1,11,0.01
2013-10-1,75.0,62.1,50.6,64.0,57.7,50.0,97,86,65,29.96,29.87,14,4,21,0.00
2013-10-2,78.4,64.1,49.7,61.0,50.5,38.0,99,68,24,30.06,29.89,6,2,12,0.01
2013-10-3,81.1,66.5,50.6,68.0,59.1,47.0,90,78,63,30.04,29.86,10,2,16,0.00
2013-10-4,79.0,69.6,63.6,69.0,65.5,62.0,97,87,68,30.00,29.87,6,1,9,0.08
2013-10-5,73.3,66.9,62.6,69.0,65.1,61.0,99,94,85,30.00,29.80,6,1,10,0.26
2013-10-6,70.9,64.4,53.1,68.0,62.3,52.0,97,93,81,29.80,29.61,10,3,16,0.26
2013-10-7,58.8,51.5,45.8,53.0,47.2,43.0,98,86,62,30.08,29.64,13,3,17,0.04
2013-10-8,69.0,53.9,38.2,49.0,44.8,38.0,99,75,46,30.26,30.08,8,1,12,0.00
2013-10-9,72.0,57.1,42.4,54.0,46.9,41.0,98,72,44,30.30,30.19,6,1,12,0.00
2013-10-10,73.4,54.7,37.3,56.0,44.2,37.0,99,73,38,30.21,30.11,5,1,11,0.00
2013-10-11,74.2,54.2,34.8,54.0,42.8,34.0,99,72,33,30.15,30.05,3,0,8,0.00
2013-10-12,77.1,62.3,46.9,62.0,53.9,45.0,98,77,49,30.07,29.99,9,2,16,0.00
2013-10-13,65.5,57.3,43.1,59.0,47.9,40.0,96,73,46,30.34,30.05,9,2,15,0.00
2013-10-14,63.6,48.6,35.0,47.0,41.1,34.0,99,79,43,30.41,30.27,5,1,10,0.00
2013-10-15,65.6,51.8,34.9,60.0,48.8,34.0,98,90,72,30.27,29.78,8,2,18,0.23
2013-10-16,61.0,54.0,49.5,60.0,50.8,47.0,97,89,74,29.86,29.76,11,4,19,0.02
2013-10-17,51.2,49.1,44.4,50.0,48.2,43.0,98,97,94,29.86,29.71,8,1,14,0.47
2013-10-18,62.3,49.5,40.9,47.0,42.8,40.0,98,80,45,29.88,29.80,12,3,21,0.01
2013-10-19,52.5,45.0,38.5,44.0,40.4,35.0,96,85,55,29.86,29.70,11,3,21,0.08
2013-10-20,56.3,47.2,39.6,44.0,40.2,38.0,96,78,54,29.89,29.77,10,3,18,0.07
2013-10-21,55.7,49.7,41.5,49.0,43.3,32.0,94,79,65,29.82,29.76,14,5,23,0.09
2013-10-22,47.2,40.6,32.9,35.0,31.1,28.0,83,70,54,29.88,29.82,16,4,21,0.00
2013-10-23,45.1,38.1,29.9,35.0,31.3,27.0,94,78,50,29.92,29.82,16,2,17,0.00
2013-10-24,46.8,36.2,29.6,35.0,31.0,28.0,97,82,56,30.16,29.91,15,2,20,0.00
2013-10-25,47.2,38.0,30.0,36.0,30.5,29.0,96,76,53,30.31,30.03,10,3,19,0.01
2013-10-26,51.9,43.1,36.5,42.0,33.8,29.0,94,71,56,30.02,29.70,18,7,30,0.10
2013-10-27,52.1,40.5,30.9,37.0,32.7,29.0,93,75,53,30.05,29.95,13,2,16,0.00
2013-10-28,47.8,39.4,31.9,38.0,33.0,29.0,94,78,64,30.42,30.02,5,0,11,0.00
2013-10-29,45.9,40.3,36.9,36.0,32.9,30.0,82,75,67,30.45,30.24,4,0,8,0.00
2013-10-30,64.1,46.6,29.8,51.0,40.1,29.0,98,80,56,30.23,29.92,8,1,11,0.00
2013-10-31,61.1,58.7,53.4,60.0,57.8,51.0,98,97,89,29.92,29.07,12,4,18,1.04
2013-11-1,60.5,48.8,45.0,60.0,45.0,41.0,97,86,77,29.63,29.02,21,6,30,0.06
2013-11-2,45.4,41.4,33.6,45.0,39.8,32.0,97,94,86,30.11,29.62,9,2,12,0.18
2013-11-3,44.2,36.4,27.8,37.0,32.1,27.0,98,85,64,30.45,30.11,6,1,9,0.01
2013-11-4,49.9,40.7,31.1,37.0,30.4,25.0,91,69,40,30.46,30.26,11,4,18,0.00
2013-11-5,56.0,51.4,46.2,48.0,44.2,37.0,85,76,70,30.31,30.11,10,3,17,0.00
2013-11-6,55.5,51.6,41.2,54.0,47.4,39.0,96,86,65,30.11,29.70,16,6,23,0.33
2013-11-7,42.0,38.6,34.5,39.0,31.8,28.0,92,77,58,30.12,29.97,11,5,22,0.00
2013-11-8,44.2,32.8,29.8,31.0,13.2,-99.9,91,62,49,30.26,30.09,11,-113,15,0.00
2013-11-9,53.4,46.3,36.7,43.0,36.2,30.0,76,68,59,30.15,29.76,16,7,25,0.00
2013-11-10,46.8,41.1,33.5,36.0,31.9,28.0,83,70,55,30.24,29.87,16,6,25,0.00
2013-11-11,41.9,35.1,26.7,38.0,30.5,21.0,95,84,73,30.32,30.02,11,5,21,0.14
2013-11-12,33.4,26.0,20.3,23.0,18.6,16.0,89,74,54,30.55,30.32,14,4,25,0.00
2013-11-13,41.2,29.4,16.7,26.0,19.0,14.0,92,68,43,30.54,30.12,15,6,31,0.00
2013-11-14,51.3,39.9,31.6,30.0,24.1,20.0,64,54,44,30.13,29.92,17,7,22,0.00
2013-11-15,52.1,44.5,39.1,30.0,28.1,25.0,67,54,40,30.03,29.95,12,5,18,0.00
2013-11-16,56.5,47.4,37.0,53.0,42.0,30.0,92,82,68,30.06,29.74,15,4,24,0.00
2013-11-17,62.7,56.8,43.1,60.0,54.1,39.0,96,91,82,29.74,29.13,25,8,53,0.71
2013-11-18,45.5,38.8,34.5,42.0,31.2,25.0,87,74,67,30.11,29.38,19,10,34,0.00
2013-11-19,42.9,33.1,24.0,26.0,23.8,20.0,89,70,51,30.41,30.11,9,2,16,0.00
2013-11-20,45.8,34.8,24.8,33.0,27.4,22.0,92,76,46,30.44,30.23,12,2,17,0.00
2013-11-21,50.0,44.4,38.6,43.0,38.2,29.0,96,79,65,30.27,30.16,9,2,15,0.13
2013-11-22,44.0,37.3,25.8,44.0,35.0,23.0,98,91,75,30.36,30.11,15,3,19,0.05
2013-11-23,27.3,22.9,16.1,24.0,16.3,9.0,92,76,54,30.52,30.25,20,7,32,0.00
2013-11-24,23.3,18.0,13.7,15.0,10.9,8.0,86,74,56,30.61,30.39,14,4,19,0.00
2013-11-25,32.4,25.7,19.0,26.0,15.0,7.0,90,65,43,30.39,30.05,21,8,24,0.00
2013-11-26,31.9,30.2,27.4,29.0,27.5,24.0,93,89,85,30.07,29.94,9,4,13,0.00
2013-11-27,27.3,21.3,15.5,25.0,14.0,9.0,90,74,56,30.20,29.95,13,4,22,0.00
2013-11-28,27.1,20.8,12.1,21.0,16.7,10.0,93,84,64,30.44,30.20,5,1,9,0.00
2013-11-29,31.6,24.0,15.1,23.0,20.3,14.0,95,86,71,30.68,30.44,5,1,6,0.00
2013-11-30,44.6,35.2,25.2,31.0,26.5,21.0,85,71,56,30.54,30.07,14,4,16,0.00
2013-12-1,40.1,35.9,31.6,34.0,31.2,29.0,92,83,68,30.06,30.00,6,2,11,0.00
2013-12-2,38.5,31.3,24.3,29.0,25.9,22.0,92,81,58,30.00,29.89,3,0,6,0.00
2013-12-3,36.2,31.2,22.1,35.0,28.6,20.0,96,90,80,29.93,29.84,7,2,11,0.09
2013-12-4,56.3,44.8,34.9,54.0,43.2,34.0,98,94,88,29.89,29.56,11,2,16,0.10
2013-12-5,58.0,40.5,28.6,55.0,34.3,21.0,91,78,66,30.12,29.55,16,7,31,0.01
2013-12-6,28.5,23.3,18.2,22.0,15.9,11.0,78,73,67,30.41,30.12,11,5,15,0.00
2013-12-7,22.1,17.2,7.8,12.0,9.2,4.0,88,71,59,30.63,30.42,10,4,16,0.00
2013-12-8,26.0,16.8,6.0,23.0,12.1,4.0,92,82,63,30.62,30.01,10,2,14,0.00
2013-12-9,28.8,25.5,17.5,27.0,21.3,9.0,95,84,69,30.08,29.87,19,6,31,0.00
2013-12-10,19.7,14.6,6.4,16.0,8.5,3.0,90,77,52,30.19,29.93,16,5,25,0.00
2013-12-11,18.8,14.5,4.6,15.0,8.9,0.0,87,78,63,30.46,30.18,16,4,23,0.00
2013-12-12,19.5,12.3,2.2,15.0,7.4,-1.0,89,81,61,30.46,30.17,17,5,21,0.00
2013-12-13,25.8,22.7,19.3,21.0,17.4,15.0,88,80,68,30.32,30.14,9,2,13,0.00
2013-12-14,20.6,19.1,16.8,19.0,16.8,14.0,93,90,86,30.31,29.85,9,2,16,0.00
2013-12-15,22.0,17.4,9.9,20.0,13.3,4.0,94,84,72,30.02,29.81,13,4,23,0.00
2013-12-16,22.5,12.5,1.0,12.0,5.2,-2.0,91,74,49,30.21,30.02,7,1,12,0.00
2013-12-17,28.1,21.8,14.1,25.0,18.8,12.0,93,88,77,30.04,29.86,10,3,17,0.00
2013-12-18,28.5,25.9,22.1,24.0,20.5,14.0,94,80,67,30.10,29.85,11,4,16,0.00
2013-12-19,38.9,33.2,27.7,33.0,28.1,18.0,95,81,64,30.00,29.82,8,2,17,0.08
2013-12-20,33.3,32.3,30.8,33.0,31.6,30.0,98,97,95,29.91,29.74,5,0,8,0.42
2013-12-21,32.1,31.3,30.5,32.0,30.9,30.0,98,98,97,29.87,29.71,4,0,6,0.42
2013-12-22,32.1,30.6,31.5,31.0,25.8,-99.9,97,93,97,29.71,29.59,0,-40,0,0.00
2013-12-25,23.1,21.6,18.2,22.0,19.3,16.0,94,90,87,30.33,30.10,0,0,0,0.00
2013-12-26,25.1,23.3,21.0,24.0,21.0,17.0,96,90,81,30.27,30.02,0,0,0,0.00
2013-12-27,37.2,29.5,24.5,33.0,27.5,22.0,95,92,83,30.31,30.00,14,1,22,0.04
2013-12-28,46.6,39.2,30.9,35.0,32.8,29.0,93,78,65,30.08,29.84,15,5,20,0.17
2013-12-29,41.1,32.2,17.3,33.0,26.0,11.0,94,78,69,30.02,29.68,12,5,19,0.00
2013-12-30,17.1,15.3,12.4,12.0,7.1,3.0,82,70,62,30.28,30.02,11,3,17,0.00
2013-12-31,16.8,14.3,10.9,13.0,9.6,5.0,90,81,68,30.35,30.07,13,5,22,0.00
2014-1-1,13.7,11.0,8.5,10.0,5.2,1.0,89,77,63,30.44,30.30,5,1,9,0.00
2014-1-2,13.9,9.9,0.8,9.0,5.2,-5.0,86,81,71,30.33,30.17,11,3,21,0.00